Location: Newark
(41.0400°S, 62.7845°W)
Time: 09:13:00
(UTC+00:00)

Transit 2A - Pass Details

Date: 01 December 2021
Orbit: 591 x 967 km, 66.7° (Epoch: 19 January)

Event Time Altitude Azimuth Distance (km) Brightness Sun altitude
Rises 16:12:32 0° 346° (NNW) 3,266 9.5 70.7°
Reaches altitude 10° 16:15:06 10° 351° (N) 2,283 8.9 70.6°
Maximum altitude 16:20:05 50° 65° (ENE) 901 7.3 70.4°
Drops below altitude 10° 16:24:39 10° 139° (SE) 2,093 8.2 70.2°
Sets 16:26:55 0° 144° (SE) 2,968 8.9 70.1°
